Weather History for KIWI - May, 2013

Change the Weather History Date:

Saturday, May 4, 2013

  Actual Average (KAUG) Record (KAUG)
Temperature  
Mean Temperature 47 °F 51 °F  
Max Temperature 61 °F 61 °F - ()
Min Temperature 34 °F 41 °F - ()
Degree Days  
Heating Degree Days 18 14  
Month to date heating degree days 58  
Since 1 July heating degree days 7062  
Cooling Degree Days 0 0  
Month to date cooling degree days 0  
Year to date cooling degree days 0  
Moisture  
Dew Point 35 °F    
Average Humidity 70    
Maximum Humidity 93    
Minimum Humidity 35    
Precipitation  
Precipitation 0.00 in 0.13 in - ()
Month to date precipitation 0.50  
Year to date precipitation 12.70  
Sea Level Pressure  
Sea Level Pressure 30.38 in    
Wind  
Wind Speed 3 mph (SE)    
Max Wind Speed 12 mph    
Max Gust Speed -    
Visibility 10 miles    
Events      
T = Trace of Precipitation, MM = Missing Value Source: NWS Daily Summary

Daily Weather History Graph

Daily Weather History Graph

Search for Another Location

Airport or City:

Trip Planner

Search our weather history database for the weather conditions in past years. The results will help you decide how hot, cold, wet, or windy it might be!

Date:

Astronomy

May. 04, 2013 Rise Set
Actual Time 5:26 AM EDT 7:45 PM EDT
Civil Twilight 4:54 AM EDT 8:18 PM EDT
Nautical Twilight 4:14 AM EDT 8:57 PM EDT
Astronomical Twilight 3:30 AM EDT 9:42 PM EDT
Moon 2:33 AM EDT (5/4) 2:30 PM EDT (5/4)
Length of Visible Light 15h 23m
Length of Day
14h 19m
Waning Crescent, 27% of the Moon is Illuminated
May 4
Waning Crescent
May 9
New
May 18
First Quarter
May 25
Full
May 31
Last Quarter

Hourly Weather History & Observations

Time (EDT) Temp. Windchill Dew Point Humidity Pressure Visibility Wind Dir Wind Speed Gust Speed Precip Events Conditions
12:53 AM 37.9 °F - 36.0 °F 93% 30.41 in 10.0 mi Calm Calm - N/A   Clear
1:53 AM 37.0 °F - 34.0 °F 89% 30.40 in 10.0 mi Calm Calm - N/A   Clear
2:53 AM 36.0 °F - 33.1 °F 89% 30.38 in 10.0 mi Calm Calm - N/A   Clear
3:53 AM 35.1 °F - 32.0 °F 89% 30.39 in 10.0 mi Calm Calm - N/A   Clear
4:53 AM 34.0 °F - 30.9 °F 89% 30.39 in 10.0 mi Calm Calm - N/A   Clear
5:53 AM 34.0 °F - 30.9 °F 89% 30.41 in 9.0 mi Calm Calm - N/A   Clear
6:53 AM 42.1 °F - 39.0 °F 89% 30.42 in 10.0 mi Calm Calm - N/A   Clear
7:53 AM 46.0 °F 43.1 °F 39.9 °F 79% 30.43 in 10.0 mi ENE 5.8 mph - N/A   Clear
8:53 AM 48.9 °F - 37.9 °F 66% 30.41 in 10.0 mi East 6.9 mph - N/A   Clear
9:53 AM 53.1 °F - 35.1 °F 50% 30.40 in 10.0 mi East 11.5 mph - N/A   Clear
10:53 AM 55.9 °F - 34.0 °F 44% 30.39 in 10.0 mi East 8.1 mph - N/A   Clear
11:53 AM 60.1 °F - 32.0 °F 35% 30.37 in 10.0 mi Variable 6.9 mph - N/A   Clear
12:53 PM 57.0 °F - 39.9 °F 53% 30.36 in 10.0 mi South 8.1 mph - N/A   Clear
1:53 PM 55.9 °F - 37.9 °F 51% 30.36 in 10.0 mi South 10.4 mph - N/A   Clear
2:53 PM 53.1 °F - 37.9 °F 57% 30.36 in 10.0 mi South 8.1 mph - N/A   Clear
3:53 PM 53.1 °F - 37.0 °F 55% 30.35 in 10.0 mi South 8.1 mph - N/A   Clear
4:53 PM 51.1 °F - 34.0 °F 52% 30.35 in 10.0 mi ESE 9.2 mph - N/A   Clear
5:53 PM 50.0 °F - 34.0 °F 54% 30.35 in 10.0 mi SE 8.1 mph - N/A   Clear
6:53 PM 50.0 °F - 34.0 °F 54% 30.36 in 10.0 mi South 3.5 mph - N/A   Clear
7:53 PM 46.0 °F 44.8 °F 35.1 °F 66% 30.36 in 10.0 mi South 3.5 mph - N/A   Clear
8:53 PM 44.1 °F - 37.9 °F 79% 30.38 in 10.0 mi Calm Calm - N/A   Clear
9:53 PM 39.0 °F - 35.1 °F 86% 30.38 in 10.0 mi Calm Calm - N/A   Clear
10:53 PM 37.0 °F - 33.1 °F 86% 30.38 in 9.0 mi Calm Calm - N/A   Clear
11:53 PM 35.1 °F - 30.9 °F 85% 30.37 in 9.0 mi Calm Calm - N/A   Clear